Weather History for KNQA - June, 2013

Change the Weather History Date:

Thursday, June 13, 2013

  Actual Average Record
Temperature  
Mean Temperature 83 °F -  
Max Temperature 93 °F 85 °F 98 °F (1998)
Min Temperature 71 °F 68 °F 57 °F (2006)
Cooling Degree Days 18    
Growing Degree Days 33 (Base 50)    
Moisture  
Dew Point 72 °F    
Average Humidity 69    
Maximum Humidity 88    
Minimum Humidity 46    
Precipitation  
Precipitation 0.00 in - - ()
Sea Level Pressure  
Sea Level Pressure 29.93 in    
Wind  
Wind Speed 9 mph (West)    
Max Wind Speed 17 mph    
Max Gust Speed -    
Visibility 10 miles    
Events      
Averages and records for this station are not official NWS values.
T = Trace of Precipitation, MM = Missing Value Source: NWS Daily Summary

Daily Weather History Graph

Daily Weather History Graph

Search for Another Location

Airport or City:

Trip Planner

Search our weather history database for the weather conditions in past years. The results will help you decide how hot, cold, wet, or windy it might be!

Date:

Astronomy

Jun. 13, 2013 Rise Set
Actual Time 5:43 AM CDT 8:15 PM CDT
Civil Twilight 5:14 AM CDT 8:45 PM CDT
Nautical Twilight 4:37 AM CDT 9:22 PM CDT
Astronomical Twilight 3:56 AM CDT 10:03 PM CDT
Moon 10:12 AM CDT (6/13) 11:31 PM CDT (6/13)
Length of Visible Light 15h 31m
Length of Day
14h 31m
Waxing Crescent, 22% of the Moon is Illuminated
Jun 13
Waxing Crescent
Jun 16
First Quarter
Jun 23
Full
Jun 29
Last Quarter
Jul 8
New

Hourly Weather History & Observations

Time (CDT) Temp. Heat Index Dew Point Humidity Pressure Visibility Wind Dir Wind Speed Gust Speed Precip Events Conditions
12:55 AM 82.4 °F 88.2 °F 73.4 °F 74% 29.93 in 10.0 mi SW 10.4 mph - N/A   Clear
1:55 AM 80.6 °F 85.4 °F 73.4 °F 79% 29.94 in 10.0 mi SW 6.9 mph - N/A   Clear
2:55 AM 80.6 °F 85.4 °F 73.4 °F 79% 29.93 in 10.0 mi SW 5.8 mph - N/A   Clear
3:15 AM 80.6 °F 85.4 °F 73.4 °F 79% 29.93 in 10.0 mi SSW 5.8 mph - N/A   Clear
3:35 AM 80.6 °F 85.4 °F 73.4 °F 79% 29.93 in 10.0 mi Variable 4.6 mph - N/A   Clear
3:55 AM 80.6 °F 85.4 °F 73.4 °F 79% 29.93 in 10.0 mi Variable 5.8 mph - N/A   Clear
4:15 AM 80.6 °F 85.4 °F 73.4 °F 79% 29.92 in 10.0 mi SW 6.9 mph - N/A   Clear
4:35 AM 80.6 °F 85.4 °F 73.4 °F 79% 29.92 in 10.0 mi Variable 6.9 mph - N/A   Clear
4:55 AM 80.6 °F 85.4 °F 73.4 °F 79% 29.92 in 10.0 mi SW 8.1 mph - N/A   Mostly Cloudy
5:15 AM 80.6 °F 85.4 °F 73.4 °F 79% 29.92 in 10.0 mi SW 8.1 mph - N/A   Mostly Cloudy
5:35 AM 80.6 °F 85.4 °F 73.4 °F 79% 29.92 in 10.0 mi SW 9.2 mph - N/A   Mostly Cloudy
5:55 AM 80.6 °F 85.4 °F 73.4 °F 79% 29.92 in 10.0 mi SW 11.5 mph - N/A   Mostly Cloudy
6:55 AM 80.6 °F 85.4 °F 73.4 °F 79% 29.93 in 10.0 mi SW 9.2 mph - N/A   Mostly Cloudy
7:55 AM 84.2 °F 92.3 °F 75.2 °F 74% 29.93 in 10.0 mi WSW 11.5 mph - N/A   Scattered Clouds
8:55 AM 87.8 °F 97.6 °F 75.2 °F 66% 29.94 in 10.0 mi WSW 13.8 mph - N/A   Scattered Clouds
9:55 AM 89.6 °F 99.8 °F 75.2 °F 62% 29.92 in 10.0 mi WSW 17.3 mph - N/A   Scattered Clouds
10:55 AM 91.4 °F 102.5 °F 75.2 °F 59% 29.92 in 10.0 mi West 15.0 mph - N/A   Scattered Clouds
11:55 AM 93.2 °F 107.2 °F 77.0 °F 59% 29.91 in 10.0 mi West 11.5 mph - N/A   Scattered Clouds
12:55 PM 93.2 °F 107.2 °F 77.0 °F 59% 29.91 in 10.0 mi NW 15.0 mph - N/A   Scattered Clouds
1:55 PM 93.2 °F 98.8 °F 69.8 °F 46% 29.91 in 10.0 mi NW 15.0 mph - N/A   Scattered Clouds
2:55 PM 93.2 °F 100.5 °F 71.6 °F 49% 29.90 in 10.0 mi North 12.7 mph - N/A   Scattered Clouds
3:55 PM 89.6 °F 96.2 °F 71.6 °F 55% 29.91 in 10.0 mi North 9.2 mph - N/A   Partly Cloudy
4:55 PM 89.6 °F 94.7 °F 69.8 °F 52% 29.91 in 10.0 mi NNW 9.2 mph - N/A   Partly Cloudy
5:55 PM 87.8 °F 92.6 °F 69.8 °F 55% 29.91 in 10.0 mi North 13.8 mph - N/A   Partly Cloudy
6:55 PM 82.4 °F 85.4 °F 68.0 °F 62% 29.92 in 10.0 mi North 8.1 mph - N/A   Partly Cloudy
7:55 PM 80.6 °F 82.7 °F 66.2 °F 61% 29.94 in 10.0 mi NNE 5.8 mph - N/A   Scattered Clouds
8:55 PM 78.8 °F - 64.4 °F 61% 29.95 in 10.0 mi NNE 5.8 mph - N/A   Scattered Clouds
9:55 PM 75.2 °F - 66.2 °F 73% 29.97 in 10.0 mi NNE 4.6 mph - N/A   Partly Cloudy
10:55 PM 73.4 °F - 66.2 °F 78% 29.97 in 10.0 mi North 3.5 mph - N/A   Partly Cloudy
11:55 PM 71.6 °F - 68.0 °F 88% 29.97 in 10.0 mi Calm Calm - N/A   Clear